[[{"header":{"parameterUnit":"m.s-1","parameterCategory":1,"la1":30.2991,"la2":30.254,"lo1":-89.0895,"lo2":-89.0444,"dy":0.0017,"dx":0.0017,"nx":28,"ny":28,"refTime":"2025-03-10T21:00:00:Z","depth":0,"parameterNumber":2,"parameterNumberName":"U-component_of_WINDS"},"data":[0,0,0,0,0,0,0,0,0,0,0,0,0,0,0,0,0,0,0,0,0,0,0,0,0,0,0,0,0,0,0,0,0,0,0,0,0,0,0,0,0,0,0,0,0,0,0,0,0,0,0,0,0,0,0,0,0,0,2.1342,2.1343,0,2.1415,2.1415,2.1416,2.1399,2.1398,2.1396,2.1395,2.1468,2.1471,2.1474,0,0,0,0,0,0,0,0,0,0,0,0,0,2.119,2.1193,2.1342,2.1343,2.1344,2.1414,2.1415,2.1416,2.1399,2.1398,2.1396,2.1395,2.1467,2.1471,2.1474,0,0,0,0,0,0,0,0,0,0,0,0,0,2.1259,2.1194,2.1342,2.1344,2.1345,2.1414,2.1415,2.1417,2.14,2.1398,2.1396,2.1394,2.1466,2.147,2.1475,2.1546,0,0,2.149,2.1492,0,0,0,0,0,0,0,0,2.1255,2.1264,2.1343,2.1344,2.1345,2.1396,2.1388,2.146,2.14,2.1379,2.1395,2.1393,2.1445,2.1452,2.147,2.155,2.1553,2.149,2.1493,2.1495,2.1497,0,0,0,0,0,0,0,2.125,2.1261,2.1371,2.1344,2.1346,2.1342,2.1349,2.1402,2.1423,2.1381,2.138,2.1388,2.1446,2.1465,2.1471,2.1554,2.149,2.1494,2.1497,2.1499,2.1698,2.17,0,0,0,0,0,0,2.1244,2.1257,2.1368,2.1373,2.1294,2.1346,2.1354,2.1382,2.1422,2.1427,2.139,2.1387,2.1458,2.1466,2.1474,2.1561,2.1495,2.15,2.1502,2.1695,2.1698,2.1701,0,0,0,0,0,0,2.1241,2.1254,2.1366,2.1315,2.1329,2.1351,2.1382,2.1384,2.1404,2.1429,2.1433,2.1406,2.1457,2.1467,2.1529,2.1564,2.1502,2.1506,2.1693,2.1696,2.17,2.1736,0,0,0,0,0,0,2.1237,2.1253,2.128,2.1316,2.1331,2.1419,2.1384,2.1387,2.1412,2.1409,2.1446,2.145,2.1456,2.1522,2.1534,2.1569,2.151,2.169,2.1694,2.1698,2.1732,2.174,2.1748,0,0,0,0,0,2.1231,2.1287,2.1282,2.1295,2.1366,2.1421,2.143,2.1437,2.1415,2.1443,2.146,2.1448,2.1558,2.1528,2.1542,2.1579,2.1687,2.1693,2.1698,2.1728,2.1738,2.1747,0,0,0,0,0,0,2.1254,2.1292,2.1286,2.1355,2.1385,2.1418,2.1453,2.1447,2.1484,2.148,2.1486,2.1494,2.1558,2.1574,2.1541,2.1651,2.162,2.1628,2.1638,2.1648,2.1656,2.165,2.1514,0,0,0,0,0,2.1267,2.131,2.134,2.1397,2.1413,2.1431,2.1455,2.1458,2.1489,2.1502,2.1523,2.1554,2.1595,2.1622,2.1662,2.1734,2.1742,2.1766,2.1774,2.1781,2.1788,2.1829,2.184,2.1718,2.1718,2.1718,0,0,2.1295,2.132,2.1346,2.1403,2.1427,2.1471,2.1442,2.1489,2.1521,2.1509,2.1569,2.1586,2.1621,2.1689,2.1719,2.1704,2.1824,2.1788,2.1793,2.1796,2.1836,2.1847,2.1858,2.1722,2.1721,2.1721,0,0,2.1367,2.139,2.1442,2.1467,2.1504,2.1515,2.1528,2.1563,2.1574,2.1634,2.1626,2.1666,2.1736,2.1762,2.1785,2.1869,2.1861,2.1882,2.1924,2.1964,2.1973,2.1982,2.2013,2.2024,2.1889,2.1889,2.1889,0,2.1396,2.1462,2.1469,2.1518,2.1543,2.1535,2.1588,2.1611,2.1659,2.1677,2.166,2.175,2.1773,2.1847,2.1868,2.1886,2.1901,2.1878,2.1971,2.198,2.1988,2.2018,2.203,2.1892,2.1891,2.1891,2.1891,0,2.1497,2.1543,2.158,2.1628,2.1657,2.1708,2.1723,2.1752,2.1753,2.1766,2.1829,2.1856,2.1902,2.192,2.192,2.1996,2.1985,2.197,2.1938,2.2002,2.203,2.2042,2.1895,2.1894,2.1893,2.1893,0,0,2.1584,2.1637,2.165,2.1673,2.1714,2.175,2.18,2.1846,2.1871,2.1905,2.1948,2.201,2.1996,2.2022,2.2025,2.206,2.2127,2.2041,2.2041,2.2057,2.2213,2.2225,2.2238,2.2122,2.2124,2.2126,2.2211,0,2.1661,2.1751,2.1759,2.184,2.1883,2.1877,2.1921,2.1952,2.1966,2.2005,2.2021,2.2065,2.2044,2.2059,2.2094,2.2112,2.2159,2.2106,2.2163,2.2165,2.2155,2.2253,2.2265,2.2344,2.2222,2.2224,2.2225,0,2.1762,2.1801,2.1886,2.1923,2.1941,2.1981,2.2024,2.2062,2.2096,2.2105,2.2135,2.2134,2.2187,2.2154,2.2227,2.2191,2.2215,2.2228,2.2231,2.2237,2.2199,2.2262,2.2369,2.2381,2.2242,2.2241,2.224,0,2.1819,2.1892,2.1953,2.1972,2.2016,2.2044,2.2064,2.2097,2.2124,2.2162,2.2181,2.2224,2.2248,2.2282,2.2293,2.2268,2.2367,2.2334,2.2376,2.2376,2.2397,2.2396,2.251,2.2412,2.2412,2.2411,2.2411,0,2.1904,2.1957,2.1979,2.2016,2.2075,2.2085,2.2143,2.2162,2.2191,2.2233,2.223,2.2268,2.2281,2.2322,2.2332,2.2392,2.2402,2.2411,2.2413,2.2412,2.2411,2.2428,2.2423,2.2414,2.2414,2.2413,2.2413,0,2.1978,2.1994,2.206,2.2098,2.2108,2.215,2.2182,2.2219,2.2234,2.2286,2.2299,2.2322,2.2371,2.2386,2.2444,2.245,2.2521,2.2518,2.251,2.251,2.2551,2.2547,2.268,2.2699,2.2588,2.2589,2.259,0,2.2031,2.2072,2.2114,2.2142,2.2163,2.2207,2.2236,2.2248,2.2278,2.2322,2.2353,2.2401,2.2441,2.2519,2.2541,2.2586,2.2584,2.2628,2.2591,2.2589,2.2586,2.2584,2.2588,2.2634,2.2636,2.2637,2.2637,0,2.2125,2.2131,2.2173,2.2218,2.2253,2.2289,2.2323,2.2346,2.2363,2.2397,2.2447,2.2478,2.2538,2.2586,2.2633,2.2653,2.2649,2.2649,2.2661,2.266,2.2654,2.2659,2.2529,2.2646,2.2645,2.2644,2.2644,2.2643,2.219,2.2227,2.2263,2.2309,2.2337,2.237,2.2407,2.2427,2.2469,2.252,2.2524,2.2578,2.2614,2.2676,2.2699,2.2742,2.2729,2.2747,2.2751,2.2756,2.2759,2.2647,2.275,2.275,2.275,2.275,2.275,0,2.2284,2.2308,2.2351,2.24,2.2437,2.2431,2.2469,2.2501,2.2549,2.2583,2.2622,2.2681,2.2728,2.2755,2.2802,2.2832,2.2831,2.2844,2.2842,2.2847,2.2767,2.2753,2.2844,2.2844,2.2844,2.2844,2.2844,2.2844,2.2338,2.24,2.2411,2.2487,2.251,2.2564,2.2587,2.2618,2.2645,2.271,2.275,2.2768,2.2799,2.2849,2.2893,2.2899,2.2917,2.2932,2.2937,2.2862,2.2853,2.2843,2.283,2.2936,2.2936,2.3014,2.3015,2.3015]},{"header":{"parameterUnit":"m.s-1","parameterCategory":1,"la1":30.2991,"la2":30.254,"lo1":-89.0895,"lo2":-89.0444,"dy":0.0017,"dx":0.0017,"nx":28,"ny":28,"refTime":"2025-03-10T21:00:00:Z","depth":0,"parameterNumber":3,"parameterNumberName":"V-component_of_WINDS"},"data":[0,0,0,0,0,0,0,0,0,0,0,0,0,0,0,0,0,0,0,0,0,0,0,0,0,0,0,0,0,0,0,0,0,0,0,0,0,0,0,0,0,0,0,0,0,0,0,0,0,0,0,0,0,0,0,0,0,0,-1.798,-1.7981,0,-1.8051,-1.8052,-1.8053,-1.8057,-1.8056,-1.8055,-1.8054,-1.8126,-1.8128,-1.8131,0,0,0,0,0,0,0,0,0,0,0,0,0,-1.7847,-1.785,-1.798,-1.7981,-1.7982,-1.8051,-1.8052,-1.8053,-1.8057,-1.8056,-1.8055,-1.8054,-1.8125,-1.8128,-1.8131,0,0,0,0,0,0,0,0,0,0,0,0,0,-1.791,-1.785,-1.798,-1.7992,-1.7994,-1.8051,-1.8052,-1.8054,-1.8057,-1.8056,-1.8054,-1.8053,-1.8124,-1.8128,-1.8132,-1.8181,0,0,-1.8144,-1.8146,0,0,0,0,0,0,0,0,-1.7907,-1.7915,-1.799,-1.7992,-1.7994,-1.8044,-1.8032,-1.8096,-1.8057,-1.8033,-1.8054,-1.8053,-1.8099,-1.8105,-1.8121,-1.8184,-1.8187,-1.8144,-1.8147,-1.8148,-1.8149,0,0,0,0,0,0,0,-1.7902,-1.7912,-1.8008,-1.7991,-1.7993,-1.7994,-1.8002,-1.8044,-1.8072,-1.8035,-1.8035,-1.8044,-1.81,-1.8117,-1.8123,-1.8188,-1.8144,-1.8148,-1.815,-1.8152,-1.8297,-1.8298,0,0,0,0,0,0,-1.7896,-1.7908,-1.8006,-1.8011,-1.7946,-1.7997,-1.8006,-1.8029,-1.8072,-1.8077,-1.8045,-1.8044,-1.8111,-1.8118,-1.8125,-1.8187,-1.8148,-1.8152,-1.8154,-1.8295,-1.8297,-1.8299,0,0,0,0,0,0,-1.7893,-1.7904,-1.8003,-1.796,-1.7972,-1.8001,-1.8027,-1.8031,-1.8048,-1.8079,-1.8084,-1.8057,-1.811,-1.812,-1.8168,-1.8189,-1.8154,-1.8157,-1.8294,-1.8296,-1.8298,-1.8309,0,0,0,0,0,0,-1.7889,-1.7903,-1.7922,-1.796,-1.7975,-1.8044,-1.8028,-1.8033,-1.8055,-1.8055,-1.8092,-1.8097,-1.811,-1.8162,-1.8172,-1.8194,-1.8161,-1.8292,-1.8295,-1.8297,-1.8307,-1.8312,-1.8316,0,0,0,0,0,-1.7884,-1.7922,-1.7923,-1.7935,-1.7999,-1.8045,-1.8054,-1.8068,-1.8057,-1.8077,-1.8097,-1.8096,-1.8186,-1.8166,-1.8178,-1.8202,-1.8291,-1.8294,-1.8297,-1.8305,-1.8311,-1.8316,0,0,0,0,0,0,-1.7886,-1.7927,-1.7929,-1.798,-1.801,-1.8046,-1.8071,-1.8074,-1.8106,-1.8104,-1.812,-1.8129,-1.8176,-1.8194,-1.8172,-1.8253,-1.8237,-1.8242,-1.8239,-1.8245,-1.8249,-1.8243,-1.8164,0,0,0,0,0,-1.7892,-1.7926,-1.7961,-1.8003,-1.8018,-1.8042,-1.8062,-1.8071,-1.8102,-1.8114,-1.8138,-1.8167,-1.8202,-1.8224,-1.8258,-1.831,-1.8319,-1.8332,-1.8337,-1.834,-1.8344,-1.8374,-1.8381,-1.831,-1.831,-1.8309,0,0,-1.7905,-1.7932,-1.7953,-1.8004,-1.8028,-1.8063,-1.8052,-1.8089,-1.8116,-1.812,-1.8166,-1.8185,-1.8219,-1.8269,-1.8292,-1.8285,-1.8366,-1.8344,-1.8347,-1.8349,-1.8378,-1.8385,-1.8391,-1.8312,-1.8311,-1.8311,0,0,-1.7947,-1.7971,-1.8009,-1.8034,-1.807,-1.8086,-1.8095,-1.8132,-1.8144,-1.8192,-1.8196,-1.8227,-1.8286,-1.8311,-1.8331,-1.8384,-1.8385,-1.8395,-1.8416,-1.8445,-1.8451,-1.8456,-1.8475,-1.8482,-1.8399,-1.8399,-1.8399,0,-1.7959,-1.8013,-1.8028,-1.8066,-1.8089,-1.8095,-1.8134,-1.8156,-1.8201,-1.8217,-1.8208,-1.8284,-1.8307,-1.8364,-1.8377,-1.8393,-1.8404,-1.839,-1.8449,-1.8454,-1.8459,-1.8477,-1.8485,-1.84,-1.84,-1.84,-1.84,0,-1.8025,-1.8063,-1.8089,-1.8133,-1.8159,-1.8197,-1.8219,-1.8243,-1.825,-1.8267,-1.8315,-1.8344,-1.8384,-1.8398,-1.8405,-1.8456,-1.845,-1.8445,-1.843,-1.8466,-1.8484,-1.8491,-1.8402,-1.8401,-1.8401,-1.8401,0,0,-1.8069,-1.8123,-1.8132,-1.8153,-1.8194,-1.8223,-1.8262,-1.8302,-1.8322,-1.8353,-1.8386,-1.8437,-1.8433,-1.8456,-1.8466,-1.8491,-1.8532,-1.8483,-1.8484,-1.8491,-1.8591,-1.8594,-1.8602,-1.8533,-1.8535,-1.8536,-1.8588,0,-1.8116,-1.8185,-1.8201,-1.8261,-1.8295,-1.8303,-1.8336,-1.8365,-1.8383,-1.8415,-1.8434,-1.847,-1.8461,-1.8475,-1.8501,-1.8522,-1.8552,-1.8518,-1.8564,-1.8566,-1.8555,-1.8612,-1.8615,-1.8663,-1.8595,-1.8596,-1.8597,0,-1.8179,-1.8213,-1.8276,-1.8314,-1.8329,-1.8359,-1.8397,-1.8428,-1.8461,-1.8472,-1.8499,-1.8506,-1.8547,-1.853,-1.8587,-1.8563,-1.8583,-1.8596,-1.8599,-1.8603,-1.8583,-1.8617,-1.8678,-1.8686,-1.8608,-1.8607,-1.8606,0,-1.8205,-1.8266,-1.8312,-1.833,-1.8374,-1.8396,-1.8415,-1.8447,-1.8471,-1.8504,-1.852,-1.8557,-1.8578,-1.8607,-1.8625,-1.8611,-1.868,-1.8665,-1.8691,-1.869,-1.8704,-1.8703,-1.8769,-1.8718,-1.8718,-1.8717,-1.8717,0,-1.8255,-1.8294,-1.8324,-1.8353,-1.8396,-1.8415,-1.8457,-1.8477,-1.8506,-1.8538,-1.8546,-1.8576,-1.8598,-1.8631,-1.8646,-1.8691,-1.87,-1.871,-1.8713,-1.8709,-1.8708,-1.8722,-1.8719,-1.8719,-1.8719,-1.8718,-1.8718,0,-1.8291,-1.8313,-1.8364,-1.8403,-1.8413,-1.8444,-1.8477,-1.8505,-1.8523,-1.8564,-1.8575,-1.8603,-1.8643,-1.8664,-1.8713,-1.8723,-1.8773,-1.8775,-1.8762,-1.8764,-1.8789,-1.8786,-1.8866,-1.8877,-1.8818,-1.8819,-1.8819,0,-1.8321,-1.8351,-1.8394,-1.8416,-1.8437,-1.8473,-1.8497,-1.8517,-1.8541,-1.8583,-1.8605,-1.8646,-1.8679,-1.8742,-1.8767,-1.8805,-1.8808,-1.8833,-1.8813,-1.8809,-1.8808,-1.8806,-1.881,-1.8836,-1.8837,-1.8838,-1.8838,0,-1.8373,-1.8383,-1.8418,-1.8457,-1.8486,-1.8517,-1.8548,-1.8566,-1.8591,-1.8619,-1.866,-1.8686,-1.8737,-1.8777,-1.8818,-1.8838,-1.8842,-1.8844,-1.8852,-1.8848,-1.884,-1.8845,-1.8772,-1.8842,-1.8842,-1.8841,-1.8841,-1.8841,-1.8407,-1.8434,-1.8469,-1.8508,-1.8534,-1.8563,-1.8591,-1.8614,-1.8648,-1.8692,-1.8701,-1.8745,-1.8779,-1.8834,-1.8855,-1.889,-1.8884,-1.8896,-1.8899,-1.8902,-1.8903,-1.8835,-1.8897,-1.8897,-1.8897,-1.8897,-1.8897,0,-1.846,-1.8483,-1.8518,-1.8562,-1.8593,-1.8595,-1.863,-1.8655,-1.8694,-1.8725,-1.8758,-1.8806,-1.8845,-1.8874,-1.8914,-1.8936,-1.894,-1.8946,-1.8945,-1.895,-1.8905,-1.8894,-1.8943,-1.8943,-1.8943,-1.8943,-1.8943,-1.8943,-1.849,-1.8537,-1.8551,-1.8611,-1.8633,-1.8677,-1.8697,-1.8724,-1.8749,-1.8802,-1.8835,-1.8854,-1.8884,-1.8927,-1.8964,-1.8971,-1.8986,-1.8992,-1.9,-1.8957,-1.8953,-1.8948,-1.8938,-1.8995,-1.8995,-1.9042,-1.9042,-1.9042]}]]